This is the latest recevied weather packets stored in our database for station/object N3DOU-1. If no packets are shown the sender has not sent any weather packets the latest 10 day(s).
| Time | Temp. | Humidity | Pressure | Rain* | Wind** | Luminosity | Snow |
|---|---|---|---|---|---|---|---|
| 1777867883 | 7.78° C | 71% | 1015.5 hPa | 0 mm | - | - | - |
| 1777866985 | 7.22° C | 72% | 1015.4 hPa | 0 mm | - | - | - |
| 1777866084 | 7.22° C | 70% | 1015.1 hPa | 0 mm | - | - | - |
| 1777865183 | 7.78° C | 72% | 1015 hPa | 0 mm | - | - | - |
| 1777864283 | 7.78° C | 68% | 1014.9 hPa | 0 mm | - | - | - |
| 1777863384 | 7.78° C | 67% | 1014.9 hPa | 0 mm | - | - | - |
| 1777862484 | 8.33° C | 65% | 1014.8 hPa | 0 mm | - | - | - |
| 1777861584 | 8.33° C | 65% | 1014.8 hPa | 0 mm | - | - | - |
| 1777860684 | 8.89° C | 63% | 1014.9 hPa | 0 mm | - | - | - |
| 1777859783 | 9.44° C | 60% | 1014.8 hPa | 0 mm | - | - | - |
| 1777858885 | 10° C | 57% | 1014.9 hPa | 0 mm | - | - | - |
| 1777857984 | 10.56° C | 55% | 1014.7 hPa | 0 mm | - | - | - |
| 1777857084 | 10.56° C | 53% | 1014.5 hPa | 0 mm | - | - | - |
| 1777856183 | 11.11° C | 51% | 1014.4 hPa | 0 mm | - | - | - |
| 1777855283 | 11.67° C | 49% | 1014.3 hPa | 0 mm | - | - | - |
| 1777854384 | 12.78° C | 48% | 1014.1 hPa | 0 mm | - | - | - |
| 1777853483 | 13.33° C | 46% | 1014.1 hPa | 0 mm | - | - | - |
| 1777852583 | 14.44° C | 42% | 1013.8 hPa | 0 mm | - | - | - |
| 1777851684 | 15° C | 44% | 1013.7 hPa | 0 mm | - | - | - |
| 1777850785 | 15° C | 39% | 1013.6 hPa | 0 mm | - | - | - |
| 1777849882 | 15.56° C | 40% | 1013.7 hPa | 0 mm | - | - | - |
| 1777848984 | 16.11° C | 36% | 1013.7 hPa | 0 mm | - | - | - |
| 1777848083 | 16.11° C | 33% | 1013.6 hPa | 0 mm | - | - | - |
| 1777847182 | 16.67° C | 35% | 1013.6 hPa | 0 mm | - | - | - |
| 1777846285 | 16.67° C | 33% | 1013.7 hPa | 0 mm | - | - | - |
* Rain latest hour (hover to see other rain measurements)
** Current wind speed in m/s (hover to see current wind gust speed)